When you browse on this site, cookies collect data to enhance your experience and personalize the content and advertising you see.
Visit our Privacy Policy to learn more. By continuing to use the site, you agree to this use of cookies and data.
  • In Spain
  • List of Countries
  • For 7 days
  • Water Temperature
  • Weather Map
  • Weather Widgets
  • user-avatar
    Login

    Hourly Weather Satif

    Today, 16 December, Monday

    Time Temperature Precipitation Wind Pressure Humidity
    00:00 +8°C° 0 mm 3 mps 672 mmHg 70%
    01:00 +8°C° 0 mm 3 mps 671 mmHg 71%
    02:00 +7°C° 0 mm 3 mps 671 mmHg 73%
    03:00 +7°C° 0 mm 3 mps 670 mmHg 74%
    04:00 +7°C° 0 mm 3 mps 670 mmHg 75%
    05:00 +7°C° 0 mm 3 mps 670 mmHg 76%
    06:00 +7°C° 0 mm 3 mps 670 mmHg 77%
    07:00 +7°C° 0 mm 4 mps 670 mmHg 73%
    08:00 +8°C° 0 mm 4 mps 671 mmHg 68%
    09:00 +10°C° 0 mm 5 mps 672 mmHg 63%
    10:00 +10°C° 0 mm 6 mps 671 mmHg 59%
    11:00 +11°C° 0 mm 8 mps 671 mmHg 56%
    12:00 +12°C° 0 mm 9 mps 671 mmHg 52%
    13:00 +12°C° 0 mm 8 mps 670 mmHg 53%
    14:00 +11°C° 0 mm 8 mps 669 mmHg 55%
    15:00 +10°C° 0 mm 7 mps 669 mmHg 56%
    16:00 +9°C° 0 mm 7 mps 668 mmHg 61%
    17:00 +8°C° 0 mm 6 mps 668 mmHg 66%
    18:00 +7°C° 0 mm 5 mps 668 mmHg 71%
    19:00 +8°C° 0 mm 6 mps 667 mmHg 69%
    20:00 +8°C° 0 mm 6 mps 667 mmHg 68%
    21:00 +8°C° 0 mm 7 mps 667 mmHg 67%
    22:00 +7°C° 0 mm 8 mps 667 mmHg 66%
    23:00 +7°C° 0 mm 9 mps 667 mmHg 65%

    Tomorrow, 17 December, Tuesday

    Time Temperature Precipitation Wind Pressure Humidity
    00:00 +7°C° 0 mm 9 mps 667 mmHg 64%
    01:00 +7°C° 0 mm 8 mps 666 mmHg 64%
    02:00 +7°C° 0 mm 6 mps 666 mmHg 65%
    03:00 +7°C° 0 mm 5 mps 665 mmHg 66%
    04:00 +7°C° 0 mm 4 mps 665 mmHg 66%
    05:00 +7°C° 0 mm 4 mps 665 mmHg 66%
    06:00 +8°C° 0 mm 3 mps 665 mmHg 66%
    07:00 +8°C° 0 mm 4 mps 665 mmHg 62%
    08:00 +10°C° 0 mm 4 mps 665 mmHg 57%
    09:00 +11°C° 0 mm 4 mps 666 mmHg 53%
    10:00 +12°C° 0 mm 7 mps 665 mmHg 47%
    11:00 +13°C° 0 mm 10 mps 665 mmHg 40%
    12:00 +14°C° 0 mm 12 mps 665 mmHg 34%
    13:00 +14°C° 0 mm 11 mps 664 mmHg 36%
    14:00 +13°C° 0 mm 9 mps 663 mmHg 38%
    15:00 +12°C° 0 mm 8 mps 663 mmHg 39%
    16:00 +11°C° 0 mm 6 mps 663 mmHg 45%
    17:00 +10°C° 0 mm 4 mps 662 mmHg 51%
    18:00 +9°C° 0 mm 3 mps 662 mmHg 58%
    19:00 +8°C° 0.1 mm 4 mps 663 mmHg 59%
    20:00 +8°C° 0.1 mm 5 mps 663 mmHg 60%
    21:00 +8°C° 0.1 mm 6 mps 663 mmHg 62%
    22:00 +7°C° 0.4 mm 5 mps 663 mmHg 69%
    23:00 +5°C° 0.4 mm 4 mps 663 mmHg 76%

    Day after tomorrow, 18 December, Wednesday

    Time Temperature Precipitation Wind Pressure Humidity
    00:00 +4°C° 0.4 mm 4 mps 662 mmHg 83%
    01:00 +4°C° 0 mm 4 mps 662 mmHg 84%
    02:00 +3°C° 0 mm 4 mps 663 mmHg 85%
    03:00 +3°C° 0 mm 4 mps 663 mmHg 86%
    04:00 +3°C° 0 mm 3 mps 663 mmHg 87%
    05:00 +3°C° 0 mm 3 mps 663 mmHg 87%
    06:00 +3°C° 0 mm 3 mps 663 mmHg 88%
    07:00 +4°C° 0 mm 4 mps 664 mmHg 84%
    08:00 +5°C° 0 mm 5 mps 665 mmHg 80%
    09:00 +4°C° 0 mm 6 mps 665 mmHg 76%
    10:00 +5°C° 0.1 mm 6 mps 666 mmHg 76%
    11:00 +5°C° 0.1 mm 6 mps 666 mmHg 75%
    12:00 +5°C° 0.1 mm 7 mps 666 mmHg 74%
    13:00 +5°C° 0.1 mm 6 mps 666 mmHg 75%
    14:00 +5°C° 0.1 mm 6 mps 667 mmHg 76%
    15:00 +5°C° 0.1 mm 6 mps 667 mmHg 77%
    16:00 +5°C° 0.1 mm 6 mps 667 mmHg 79%
    17:00 +6°C° 0.1 mm 5 mps 668 mmHg 81%
    18:00 +5°C° 0.1 mm 5 mps 668 mmHg 83%
    19:00 +5°C° 0 mm 4 mps 669 mmHg 85%
    20:00 +4°C° 0 mm 3 mps 669 mmHg 86%
    21:00 +3°C° 0 mm 3 mps 670 mmHg 87%
    22:00 +4°C° 0 mm 2 mps 670 mmHg 86%
    23:00 +4°C° 0 mm 2 mps 670 mmHg 86%

    19 December, Thursday

    Time Temperature Precipitation Wind Pressure Humidity
    00:00 +4°C° 0 mm 2 mps 670 mmHg 85%
    01:00 +3°C° 0 mm 2 mps 670 mmHg 83%
    02:00 +3°C° 0 mm 2 mps 670 mmHg 80%
    03:00 +3°C° 0 mm 2 mps 670 mmHg 78%
    04:00 +3°C° 0 mm 2 mps 670 mmHg 75%
    05:00 +3°C° 0 mm 2 mps 670 mmHg 72%
    06:00 +3°C° 0 mm 2 mps 670 mmHg 70%
    07:00 +4°C° 0 mm 2 mps 671 mmHg 64%
    08:00 +6°C° 0 mm 2 mps 672 mmHg 58%
    09:00 +7°C° 0 mm 3 mps 673 mmHg 53%
    10:00 +9°C° 0 mm 3 mps 673 mmHg 50%
    11:00 +10°C° 0 mm 3 mps 672 mmHg 47%
    12:00 +12°C° 0 mm 4 mps 672 mmHg 44%
    13:00 +12°C° 0 mm 4 mps 672 mmHg 48%
    14:00 +11°C° 0 mm 4 mps 672 mmHg 52%
    15:00 +11°C° 0 mm 4 mps 672 mmHg 56%
    16:00 +10°C° 0 mm 4 mps 672 mmHg 60%
    17:00 +8°C° 0 mm 3 mps 671 mmHg 65%
    18:00 +7°C° 0 mm 3 mps 671 mmHg 70%
    19:00 +7°C° 0 mm 3 mps 671 mmHg 70%
    20:00 +7°C° 0 mm 3 mps 671 mmHg 70%
    21:00 +7°C° 0 mm 3 mps 672 mmHg 69%
    22:00 +7°C° 0 mm 3 mps 671 mmHg 68%
    23:00 +5°C° 0 mm 3 mps 671 mmHg 67%

    20 December, Friday

    Time Temperature Precipitation Wind Pressure Humidity
    00:00 +5°C° 0 mm 3 mps 671 mmHg 66%
    01:00 +5°C° 0 mm 3 mps 670 mmHg 67%
    02:00 +5°C° 0 mm 4 mps 670 mmHg 67%
    03:00 +5°C° 0 mm 4 mps 670 mmHg 67%
    04:00 +4°C° 0 mm 4 mps 669 mmHg 68%
    05:00 +4°C° 0 mm 4 mps 669 mmHg 68%
    06:00 +4°C° 0 mm 4 mps 669 mmHg 69%
    07:00 +6°C° 0 mm 5 mps 669 mmHg 65%
    08:00 +7°C° 0 mm 6 mps 669 mmHg 61%
    09:00 +8°C° 0 mm 7 mps 670 mmHg 57%
    10:00 +9°C° 0 mm 8 mps 669 mmHg 53%
    11:00 +11°C° 0 mm 9 mps 669 mmHg 49%
    12:00 +12°C° 0 mm 11 mps 669 mmHg 45%
    13:00 +11°C° 0 mm 10 mps 668 mmHg 47%
    14:00 +11°C° 0 mm 10 mps 668 mmHg 50%
    15:00 +10°C° 0 mm 9 mps 667 mmHg 52%
    16:00 +9°C° 0 mm 8 mps 667 mmHg 55%
    17:00 +8°C° 0 mm 7 mps 667 mmHg 58%
    18:00 +7°C° 0 mm 6 mps 667 mmHg 62%
    19:00 +8°C° 0 mm 7 mps 667 mmHg 61%
    20:00 +8°C° 0 mm 7 mps 667 mmHg 60%
    21:00 +7°C° 0 mm 8 mps 667 mmHg 60%
    22:00 +7°C° 0 mm 8 mps 667 mmHg 62%
    23:00 +7°C° 0 mm 8 mps 666 mmHg 63%

    21 December, Saturday

    Time Temperature Precipitation Wind Pressure Humidity
    00:00 +7°C° 0 mm 8 mps 666 mmHg 65%
    01:00 +8°C° 0.4 mm 7 mps 666 mmHg 68%
    02:00 +8°C° 0.4 mm 6 mps 666 mmHg 72%
    03:00 +7°C° 0.4 mm 6 mps 665 mmHg 75%
    04:00 +7°C° 1.3 mm 5 mps 665 mmHg 80%
    05:00 +7°C° 1.3 mm 5 mps 666 mmHg 85%
    06:00 +7°C° 1.3 mm 5 mps 666 mmHg 90%
    07:00 +8°C° 0.3 mm 5 mps 667 mmHg 87%
    08:00 +9°C° 0.3 mm 5 mps 668 mmHg 84%
    09:00 +9°C° 0.3 mm 5 mps 669 mmHg 81%
    10:00 +10°C° 0 mm 5 mps 669 mmHg 74%
    11:00 +10°C° 0 mm 6 mps 669 mmHg 67%
    12:00 +11°C° 0 mm 7 mps 670 mmHg 60%
    13:00 +10°C° 0 mm 7 mps 670 mmHg 62%
    14:00 +10°C° 0 mm 6 mps 670 mmHg 63%
    15:00 +10°C° 0 mm 5 mps 670 mmHg 65%
    16:00 +10°C° 0 mm 4 mps 670 mmHg 69%
    17:00 +9°C° 0 mm 3 mps 670 mmHg 74%
    18:00 +8°C° 0 mm 2 mps 670 mmHg 78%
    19:00 +8°C° 0 mm 2 mps 670 mmHg 79%
    20:00 +8°C° 0 mm 2 mps 671 mmHg 80%
    21:00 +9°C° 0 mm 3 mps 671 mmHg 80%
    22:00 +9°C° 0 mm 2 mps 671 mmHg 82%
    23:00 +9°C° 0 mm 2 mps 671 mmHg 85%
    Show more